Location: Angwan Shehu
(11.2514°N, 7.4613°E)
Time: 21:35:47
(UTC+00:00)

GENESIS II - Pass Details

Date: 14 November 2019
Orbit: 478 x 551 km, 64.5° (Epoch: 07 December)

Event Time Altitude Azimuth Distance (km) Brightness Sun altitude
Rises 18:03:18 0° 202° (SSW) 2,594 8.3 -14.9°
Reaches altitude 10° 18:05:26 10° 202° (SSW) 1,722 7.4 -15.4°
Maximum altitude 18:09:17 88° 111° (ESE) 522 4.1 -16.3°
Enters shadow 18:11:45 22° 24° (NNE) 1,172 5.6 -16.9°
